[Iaude] MPEC V18: 2023 VF [a=1.17,e=0.44,i=15.8,H=23.3]
    mpec at marsden.cfa.harvard.edu 
    mpec at marsden.cfa.harvard.edu
       
    Fri Nov  3 22:48:02 EDT 2023
    
    
  
M.P.E.C. 2023-V18                              Issued 2023 November 4, 02:46 UT
     The Minor Planet Electronic Circulars contain information on unusual
         minor planets, routine data on comets and natural satellites,
         and occasional editorial announcements.  They are published
    on behalf of Division F of the International Astronomical Union by the
          Minor Planet Center, Smithsonian Astrophysical Observatory,
                          Cambridge, MA 02138, U.S.A.
			  
             Prepared using the Tamkin Foundation Computer Network
                              MPC at CFA.HARVARD.EDU
            URL https://www.minorplanetcenter.net/    ISSN 1523-6714
                                    2023 VF                                     
Observations:
     K23V00F 1C2023 10 22.27997 03 08 48.86 +34 23 24.5          21.6 GVEV018G96
     K23V00F 1C2023 10 22.28518 03 08 48.66 +34 23 16.8          20.9 GVEV018G96
     K23V00F*1C2023 11 03.41681502 57 02.063+23 20 39.01         19.35GVEV018G96
     K23V00F 1C2023 11 03.42199602 57 01.404+23 20 06.07         19.23GVEV018G96
     K23V00F 1C2023 11 03.42718802 57 00.702+23 19 32.95         19.32GVEV018G96
     K23V00F 1C2023 11 03.43238402 57 00.014+23 18 59.80         19.34GVEV018G96
     K23V00F  C2023 11 03.47012002 56 57.872+23 15 22.50         19.57wXEV018F52
     K23V00F  C2023 11 03.48314102 56 56.034+23 13 59.76         19.62wXEV018F52
     K23V00F mC2023 11 03.48997402 56 52.642+23 12 49.43         19.45GVEV018I52
     K23V00F mC2023 11 03.49028302 56 52.595+23 12 47.74         19.31GVEV018I52
     K23V00F mC2023 11 03.49235802 56 52.336+23 12 34.42         19.52GVEV018I52
     K23V00F mC2023 11 03.49266702 56 52.325+23 12 32.04         19.35GVEV018I52
     K23V00F  C2023 11 03.49620002 56 54.186+23 12 36.39         19.66wXEV018F52
     K23V00F  C2023 11 03.50936502 56 52.339+23 11 11.94         19.74wXEV018F52
     K23V00F KB2023 11 03.84736102 56 18.361+22 33 57.02         19.0 GXEV018B72
     K23V00F KB2023 11 03.85459002 56 17.366+22 33 09.19         19.0 GXEV018B72
     K23V00F KB2023 11 03.86181402 56 16.434+22 32 21.76         18.7 GXEV018B72
     K23V00F KC2023 11 03.88561 02 56 12.52 +22 29 51.8          19.3 VqEV018L04
     K23V00F KC2023 11 03.89403 02 56 11.32 +22 28 55.5          19.5 VqEV018L04
     K23V00F KC2023 11 03.89942 02 56 10.57 +22 28 20.0          19.5 VqEV018L04
     K23V00F  C2023 11 03.89985 02 56 10.84 +22 29 47.6          18.3 GVEV018M28
     K23V00F  C2023 11 03.90194 02 56 10.60 +22 29 34.5          18.4 GVEV018M28
     K23V00F  C2023 11 03.90401 02 56 10.30 +22 29 21.1          18.3 GVEV018M28
     K23V00F IC2023 11 03.95186602 56 03.93 +22 22 29.6          19.4 GVEV018L01
     K23V00F hC2023 11 03.95360102 56 03.63 +22 22 18.4          19.9 GVEV018L01
     K23V00F hC2023 11 03.95533202 56 03.41 +22 22 06.4          19.5 GVEV018L01
     K23V00F 1C2023 11 04.03078 02 55 51.38 +22 13 29.3          19.5 GVEV018C40
     K23V00F 1C2023 11 04.03270 02 55 51.13 +22 13 15.8          19.6 GVEV018C40
     K23V00F 1C2023 11 04.03591 02 55 50.72 +22 12 53.0          19.8 GVEV018C40
     K23V00F 1C2023 11 04.04104 02 55 49.96 +22 12 16.9          19.5 GVEV018C40
     K23V00F 1C2023 11 04.04167 02 55 49.90 +22 12 12.5          19.2 GVEV018C40
     K23V00F 1C2023 11 04.05064 02 55 48.67 +22 11 10.3          19.5 GVEV018C40
Observer details:
B72 Soerth.  Observer B. Koch.  0.36-m f/7.6 reflector + CMO.
C40 Kuban State University Astrophysical Observatory.  Observers A. Ivanov, A.
    Barcov, V. Ivanov, V. Lysenko, N. Yakovenko, N. Ivanova, N. Gorbunov, G.
    Kurbatov, P. Shchukin, V. Roshchupko.  Measurer A. Ivanov.  0.51-m f/8
    reflector + CCD.
F52 Pan-STARRS 2, Haleakala.  Observers J. Bulger, T. Lowe, P. Minguez, A.
    Schultz, I. Smith.  Measurers K. Chambers, T. de Boer, J. Fairlamb, H.
    Gao, M. Huber, C.-C. Lin, E. Magnier, Y. Ramanjooloo, R. Wainscoat, R.
    Weryk.  1.8-m Ritchey-Chretien + CCD.
G96 Mt. Lemmon Survey.  Observers J. K. Hogan, J. B. Fazekas.  Measurers B.
    Gray, D. Rankin, F. C. Shelly, E. C. Beshore, D. Fay, J. B. Fazekas, D. C.
    Fuls, A. R. Gibbs, A. D. Grauer, H. Groeller, J. K. Hogan, R. A. Kowalski,
    S. M. Larson, G. J. Leonard, R. L. Seaman, K. W. Wierzchos.  1.5-m
    reflector + 10K CCD.
I52 Steward Observatory, Mt. Lemmon Station.  Observer D. Rankin.  Measurers
    E. C. Beshore, D. Fay, J. B. Fazekas, D. C. Fuls, A. R. Gibbs, A. D.
    Grauer, H. Groeller, J. K. Hogan, R. A. Kowalski, S. M. Larson, G. J.
    Leonard, D. Rankin, R. L. Seaman, F. C. Shelly, K. W. Wierzchos.  1.0-m
    prime focus + CCD.
L01 Visnjan Observatory, Tican.  Observers K. Korlevic, L. Poropat.  Measurer
    K. Korlevic.  1.0-m f/2.9 reflector + CCD.
L04 ROASTERR-1 Observatory, Cluj-Napoca.  Observer L. Hudin.  0.3-m f/5
    reflector + CCD.
M28 Lesedi Telescope-SAAO Observatory, Sutherland.  Observers N. Erasmus, S.
    Potter, C. van Gend, S. Chandra, H. Worters.  Measurers T. Ngwane, N.
    Erasmus.  1.0-m f/8 Reflector + CCD.
Orbital elements:
2023 VF                                                  Earth MOID = 0.0480 AU
Epoch 2023 Sept. 13.0 TT = JDT 2460200.5                Veres                   
M 260.73897              (2000.0)            P               Q                  
n   0.78180023     Peri.  287.82015     -0.85436350     -0.48453132             
a   1.1670036      Node   223.71839     +0.51641022     -0.83204202             
e   0.4369300      Incl.   15.77294     -0.05816781     -0.27006568             
P   1.26           H   23.32          G   0.15           U   8                  
Residuals in seconds of arc
231022 G96  0.1+  0.0     231103 I52  0.4+  0.1-    231103 M28  0.9-  2.1+
231022 G96  0.1-  0.0     231103 F52  0.0   0.1-    231103 L01  0.5+  0.1-
231103 G96  0.1-  0.1-    231103 F52  0.1+  0.2-    231103 L01  0.3-  0.3+
231103 G96  0.3+  0.0     231103 B72  0.2+  0.2+    231103 L01  0.1+  0.0
231103 G96  0.1+  0.0     231103 B72  0.5-  0.2-    231104 C40  0.1+  0.8+
231103 G96  0.0   0.0     231103 B72  0.3-  0.1-    231104 C40  0.2+  0.5+
231103 F52  0.0   0.1-    231103 L04  0.3-  0.3+    231104 C40  0.5+  0.1-
231103 F52  0.1+  0.1-    231103 L04  0.8-  0.0     231104 C40  0.5-  0.7-
231103 I52  0.1+  0.2-    231103 L04  0.8-  0.4+    231104 C40  0.1-  0.7-
231103 I52  0.0   0.1+    231103 M28  1.7-  1.0+    231104 C40  0.6-  0.8-
231103 I52  0.0   0.2+    231103 M28  0.9-  1.8+
Ephemeris:
2023 VF                  a,e,i = 1.17, 0.44, 16                  q = 0.6571
Date    TT    R. A. (2000) Decl.     Delta      r    Elong.  Phase     V
2023 10 05    03 05 35.3 +37 25 29   0.4011  1.3085   133.3    33.8    23.3
...
2023 10 20    03 09 22.7 +35 14 58   0.2503  1.2138   147.1    26.5    21.9
...
2023 10 28    03 05 26.6 +31 00 50   0.1770  1.1591   157.4    19.3    20.9
...
2023 11 03    02 57 49.9 +24 03 21   0.1263  1.1164   168.7    10.0    19.7
2023 11 04    02 55 58.0 +22 17 38   0.1184  1.1091   171.2     7.9    19.5
2023 11 05    02 53 52.4 +20 16 32   0.1107  1.1018   173.9     5.5    19.2
...
2023 11 11    02 34 07.5 -00 36 49   0.07073 1.0574   160.9    17.8    18.6
...
2023 11 19    01 06 35.1 -59 05 54   0.06058 0.9966    95.9    80.6    20.0
...
2023 12 04    16 44 52.0 -66 53 40   0.1575  0.8809    44.8   128.0    24.5
M. P. C. Staff               (C) Copyright 2023 MPC           M.P.E.C. 2023-V18
    
    
More information about the Iaude
mailing list